Regional Weather Roundup
Issued by NWS Jackson, KY

Home | Current Version | Previous Version | Text Only | Print | Product List | Glossary Off
Versions: 1 2 3 4 5 6 7 8 9 10 11 12 13 14 15 16 17 18 19 20 21 22 23 24 25 26 27 28 29 30 31 32 33 34 35 36 37 38 39 40 41 42 43 44 45 46 47 48 49 50

000
ASUS43 KJKL 260005
RWRJKL

EAST KENTUCKY HOURLY WEATHER ROUNDUP
NATIONAL WEATHER SERVICE JACKSON KY
700 PM EST SUN JAN 25 2015

NOTE: "FAIR" INDICATES FEW OR NO CLOUDS BELOW 12,000 FEET WITH
NO SIGNIFICANT WEATHER AND/OR OBSTRUCTIONS TO VISIBILITY.

* THESE REPORTS ARE NOT UNDER NWS QUALITY CONTROL AND MAY NOT
  REPORT WEATHER SUCH AS PRECIPITATION AND FOG.

KYZ079-080-083-085-087-088-110-112-115-119-120-260100
...EASTERN KENTUCKY...

CITY           SKY/WX    TMP DP  RH WIND       PRES   REMARKS
JACKSON        CLOUDY    45  34  65 SE6       29.68S
6HR MIN TEMP:  45; 6HR MAX TEMP:  50; 6HR PCP: TRACE;

LONDON         CLOUDY    47  30  51 SE3       29.66S
6HR MIN TEMP:  47; 6HR MAX TEMP:  52;

SOMERSET*      CLOUDY    48  32  53 S8        29.67R
MONTICELLO*    CLOUDY    50  37  60 S14       29.69R
6HR MIN TEMP:  49; 6HR MAX TEMP:  54;

MIDDLESBORO*   CLOUDY    45  35  67 S3        29.70S
6HR MIN TEMP:  44; 6HR MAX TEMP:  52;

HARLAN APT*    CLOUDY    45  32  61 CALM      29.70R
BLACK MTN*       N/A     36  30  80 S1          N/A
PIKEVILLE APT* RAIN      45  34  65 S7        29.71R
BIG SANDY*     DRIZZLE   47  34  61 SW6       29.71R
6HR MIN TEMP:  46; 6HR MAX TEMP:  50;

MOREHEAD APT*  LGT RAIN  45  36  70 CALM      29.70R
$$

KYZ035-036-041-042-044-050-067-078-099-260100
...CENTRAL KENTUCKY...

CITY           SKY/WX    TMP DP  RH WIND       PRES   REMARKS
MT STERLING*   LGT RAIN  45  37  76 S5        29.68R
FLEMING/MASON* RAIN      37  34  92 E5        29.69R WCI  33
DANVILLE*      LGT RAIN  41  39  93 CALM      29.66S
RICHMOND*      CLOUDY    46  36  66 SW7       29.66R
LEXINGTON      RAIN      41  38  89 SE6       29.67R
6HR MIN TEMP:  39; 6HR MAX TEMP:  44; 6HR PCP:  0.08;

FRANKFORT      LGT RAIN  39  37  92 E3        29.65R
6HR MIN TEMP:  39; 6HR MAX TEMP:  42; 6HR PCP:  0.08;

$$

KYZ091>093-OHZ055-061-077-WVZ005-015-034-035-042-260100
...SOUTHERN OHIO/WEST VIRGINIA...

CITY           SKY/WX    TMP DP  RH WIND       PRES   REMARKS
COVINGTON      LGT RAIN  39  37  92 NE5       29.67R FOG
COLUMBUS       LGT SNOW  34  30  86 NE5       29.74R FOG     WCI  30
DAYTON         LGT SNOW  32  30  92 NE16      29.74R VSB 3/4 WCI  21
WILMINGTON     LGT RAIN  35  33  92 E6        29.70R FOG     WCI  30
HUNTINGTON     LGT RAIN  42  37  82 NE5       29.70R
CHARLESTON     CLOUDY    44  35  70 E6        29.70S
PINEVILLE*     CLOUDY    42  38  87 MISG      29.76R
BECKLEY        CLOUDY    40  30  67 S5        29.70R
BLUEFIELD      CLOUDY    43  31  62 VRB3      29.72R
$$

VAZ002-007-008-TNZ017-027-036-066-071-260100
...SOUTHWEST VIRGINIA/EAST TENNESSEE...

CITY           SKY/WX    TMP DP  RH WIND       PRES   REMARKS
WISE*          CLOUDY    43  30  61 SW5       29.71S
JONESVILLE*    CLOUDY    45  34  65 CALM      29.73R
ABINGDON*      CLOUDY    45  32  61 CALM      29.72R
BRISTOL        CLOUDY    47  32  56 CALM      29.72R
KNOXVILLE      LGT RAIN  50  34  54 SW15      29.71R
OAK RIDGE      CLOUDY    52  33  48 SW9       29.72R
CROSSVILLE     CLOUDY    47  35  63 VRB6      29.69R
NASHVILLE      CLOUDY    47  42  83 W6        29.70R
$$

...KEY TO REMARKS...
VSB - VISIBILITY IN MILES
WCI - WIND CHILL INDEX
HX  - HEAT INDEX

$$


USA.gov is the U.S. government's official web portal to all federal, state and local government web resources and services.